FENGYUN 1C DEB, 36258

Orbit data source: Space-Track

FENGYUN 1C DEB, 36258 is space debris in SSO originally from a launch on Mon, 10 May 1999 UTC launched from the Taiyaun Space Center, China (TSC). Fengyun 1C debris stems from the Chinese weather satellite Fengyun-1C, which was intentionally destroyed by a Chinese anti-satellite missile in 2007. This event dramatically increased the amount of space debris, with thousands of trackable fragments posing hazards to satellites and human spaceflight. The Fengyun 1C debris cloud has become a focal point in discussions about space sustainability and the need for international regulations to prevent the creation of new debris.

Loading next visibility...
Identifier
36258, 1999-025DWK
Orbit
SSO
Country
Flag of CNCN / PRC
Related business
Manufacturer
Unknown
Mission
Spacecraft
Bus & Motor
Unknown
Mass
Unknown
Launch date (UTC)
1999-05-10 (27 years ago)
Launch vehicle
Unknown
Launch site
Taiyaun Space Center, China (TSC)
Object type
Payload
Rocket body
Debris
Shape & HBR
Unknown shape, 0.1 m
Radar Cross Section
Small (<0.1 m²)

Expand to show TLE details & history
Last TLE update: 2 days ago

TLE from 2 days ago
0 FENGYUN 1C DEB
1 36258U 99025DWK 26204.98955665  .00002561  00000-0  30191-3 0  9997
2 36258  99.0600 266.5618 0170411 149.3879 211.7407 14.75985226941149
Epoch: 2026-07-23T23:44Z
TLE epoch observation values (Epoch: 2026-07-23T23:44:57.694Z)
Latitude
Longitude
-31.40122°
Altitude
747.319 km
Speed
7.426 km/s
True Right ascension
17h 46m 14s
True Declination
0° 00' 00"
Sunlit
Object was in full shadow at epoch
Visualization orbit readout
Latitude
Unknown
Longitude
Unknown
Altitude
Unknown
Speed
Unknown
Apparent Right ascension
Unknown
Apparent Declination
Unknown
Sunlit
N/A
Visualization observer readout
Local Sidereal Time
20:24:55
Azimuth
Unknown
Elevation
Unknown
Doppler factor
Unknown
Orbital elements
Apogee altitude
758.708 km
Perigee altitude
519.544 km
Semi-major axis
7,017.263 km
Eccentricity
0.01704
Inclination
99.06°
RAAN
266.5618°
Arg. of periapsis
149.3879°
True anomaly
210.73174°
Mean anomaly
211.7407°
Eccentric anomaly
211.23441°
Mean motion
3.69225 °/min
Orbital period
97.5 mins
BSTAR
0.00030191
Loading maneuver chart data...
Computing Atmospheric mass density...

Documentation

Showing up to 5 results
|